Date String (YYYY-MM-DD hh:mm:ss) UTC,Instrument flags,absolute air pressure of the measurement (hPa),sample flow rate (lpm),inlet stack bypass flow (lpm),air temperature of the measurement (°C),ambient temperature measured by the external sensor (°C),aerosol sample conditioner tube jacket temperature (°C),OPC LED temperature (°C),internal box temperature (°C),relative humidity of the measurement (%),span deviation,mass concentration of particles derived from Lorenz-Mie calculation of OPC scattering (μg/m³),mass concentration of particles derived from Lorenz-Mie calculation of OPC scattering (μg/m³),mass concentration of particles derived from Lorenz-Mie calculation of OPC scattering (μg/m³)
DateTimeUTC,F1_M11,P_M11,Q1_M11,Q2_M11,T1_M11,T2_M11,T3_M11,T4_M11,T5_M11,U1_M11,ZSPAN_M11,X0_M11,X2_M11,X1_M11
2023-11-04 16:00:00,SystemResetWarning,0835.2,5.00,000.00,026.9,026.1,000.0,035.1,028.3,16.0,0000.0,0009.05,0003.29,0002.54
2023-11-04 16:01:00,SystemResetWarning,0835.2,4.99,000.00,026.9,026.1,000.0,035.2,028.4,16.3,0000.0,0008.95,0003.25,0002.53
2023-11-04 16:02:00,SystemResetWarning,0835.2,4.99,000.00,026.9,026.1,000.0,035.2,028.4,16.2,0000.0,0008.82,0003.22,0002.52
2023-11-04 16:03:00,SystemResetWarning,0835.2,5.00,000.00,026.9,026.1,000.0,035.2,028.4,16.1,0000.0,0008.31,0003.20,0002.52
2023-11-04 16:04:00,SystemResetWarning,0835.2,5.00,000.00,026.9,026.1,000.0,035.2,028.4,16.2,0000.0,0008.38,0003.21,0002.50
2023-11-04 16:05:00,SystemResetWarning,0835.2,4.99,000.00,026.9,026.1,000.0,035.2,028.4,16.3,0000.0,0009.13,0003.22,0002.50
2023-11-04 16:06:00,SystemResetWarning,0835.2,5.01,000.00,026.9,026.1,000.0,035.2,028.4,16.1,0000.0,0009.42,0003.21,0002.49
2023-11-04 16:07:00,SystemResetWarning,0835.2,5.00,000.00,026.9,026.1,000.0,035.2,028.4,16.3,0000.0,0009.06,0003.17,0002.48
2023-11-04 16:08:00,SystemResetWarning,0835.2,5.00,000.00,027.0,026.1,000.0,035.2,028.5,16.4,0000.0,0008.54,0003.19,0002.47
2023-11-04 16:09:00,SystemResetWarning,0835.3,5.00,000.00,027.0,026.2,000.0,035.2,028.5,16.2,0000.0,0008.46,0003.21,0002.47
2023-11-04 16:10:00,SystemResetWarning,0835.2,5.00,000.00,027.0,026.2,000.0,035.2,028.5,16.2,0000.0,0008.83,0003.20,0002.50
2023-11-04 16:11:00,SystemResetWarning,0835.2,4.99,000.00,027.0,026.2,000.0,035.2,028.5,15.9,0000.0,0008.96,0003.24,0002.53
2023-11-04 16:12:00,SystemResetWarning,0835.1,4.99,000.00,027.0,026.2,000.0,035.3,028.5,16.0,0000.0,0008.91,0003.23,0002.55
2023-11-04 16:13:00,SystemResetWarning,0835.2,5.00,000.00,027.0,026.2,000.0,035.3,028.5,16.3,0000.0,0009.02,0003.24,0002.56
2023-11-04 16:14:00,SystemResetWarning,0835.1,5.01,000.00,027.0,026.2,000.0,035.3,028.5,16.3,0000.0,0009.08,0003.22,0002.56
2023-11-04 16:15:00,SystemResetWarning,0835.1,5.01,000.00,027.0,026.3,000.0,035.3,028.5,16.1,0000.0,0009.46,0003.19,0002.55
2023-11-04 16:16:00,SystemResetWarning,0835.2,5.00,000.00,027.0,026.3,000.0,035.3,028.5,16.3,0000.0,0008.77,0003.17,0002.54
2023-11-04 16:17:00,SystemResetWarning,0835.2,5.00,000.00,027.1,026.3,000.0,035.3,028.6,16.4,0000.0,0008.44,0003.17,0002.56
2023-11-04 16:18:00,SystemResetWarning,0835.2,5.00,000.00,027.1,026.3,000.0,035.3,028.6,16.2,0000.0,0008.42,0003.18,0002.58
2023-11-04 16:19:00,SystemResetWarning,0835.2,5.00,000.00,027.1,026.3,000.0,035.3,028.6,15.9,0000.0,0009.09,0003.16,0002.58
2023-11-04 16:20:00,SystemResetWarning,0835.1,5.00,000.00,027.1,026.3,000.0,035.4,028.6,15.8,0000.0,0009.03,0003.13,0002.58
2023-11-04 16:21:00,SystemResetWarning,0835.1,5.00,000.00,027.1,026.3,000.0,035.4,028.6,15.8,0000.0,0008.48,0003.12,0002.57
2023-11-04 16:22:00,SystemResetWarning,0835.2,5.00,000.00,027.1,026.3,000.0,035.4,028.6,16.0,0000.0,0007.71,0003.11,0002.56
2023-11-04 16:23:00,SystemResetWarning,0835.2,4.99,000.00,027.1,026.4,000.0,035.4,028.6,16.0,0000.0,0007.87,0003.13,0002.54
2023-11-04 16:24:00,SystemResetWarning,0835.3,5.00,000.00,027.1,026.4,000.0,035.4,028.6,15.9,0000.0,0008.51,0003.12,0002.54
2023-11-04 16:25:00,SystemResetWarning,0835.2,5.01,000.00,027.2,026.4,000.0,035.4,028.7,15.8,0000.0,0009.28,0003.12,0002.53
2023-11-04 16:26:00,SystemResetWarning,0835.2,5.00,000.00,027.2,026.4,000.0,035.4,028.7,16.0,0000.0,0008.65,0003.11,0002.53
2023-11-04 16:27:00,SystemResetWarning,0835.2,5.01,000.00,027.2,026.4,000.0,035.4,028.7,16.0,0000.0,0008.51,0003.08,0002.54
2023-11-04 16:28:00,SystemResetWarning,0835.2,5.01,000.00,027.2,026.4,000.0,035.5,028.7,16.1,0000.0,0008.57,0003.07,0002.53
2023-11-04 16:29:00,SystemResetWarning,0835.2,5.00,000.00,027.2,026.4,000.0,035.5,028.7,15.9,0000.0,0008.51,0003.03,0002.51
2023-11-04 16:30:00,SystemResetWarning,0835.2,5.00,000.00,027.2,026.4,000.0,035.5,028.7,15.7,0000.0,0007.80,0003.03,0002.52
2023-11-04 16:31:00,SystemResetWarning,0835.3,5.00,000.00,027.2,026.5,000.0,035.5,028.8,15.9,0000.0,0007.66,0003.06,0002.55
2023-11-04 16:32:00,SystemResetWarning,0835.3,4.99,000.00,027.3,026.5,000.0,035.5,028.8,15.9,0000.0,0007.59,0003.06,0002.58
2023-11-04 16:33:00,SystemResetWarning,0835.3,4.99,000.00,027.3,026.5,000.0,035.5,028.8,15.9,0000.0,0007.67,0003.07,0002.60
2023-11-04 16:34:00,SystemResetWarning,0835.3,5.00,000.00,027.3,026.5,000.0,035.5,028.8,15.7,0000.0,0007.94,0003.10,0002.64
2023-11-04 16:35:00,SystemResetWarning,0835.3,5.00,000.00,027.3,026.5,000.0,035.5,028.8,15.5,0000.0,0007.35,0003.12,0002.66
2023-11-04 16:36:00,SystemResetWarning,0835.3,5.00,000.00,027.3,026.6,000.0,035.6,028.8,15.7,0000.0,0005.84,0003.14,0002.68
2023-11-04 16:37:00,SystemResetWarning,0835.2,5.01,000.00,027.3,026.6,000.0,035.6,028.9,15.8,0000.0,0005.71,0003.14,0002.69
2023-11-04 16:38:00,SystemResetWarning,0835.3,5.01,000.00,027.4,026.6,000.0,035.6,028.9,15.7,0000.0,0005.88,0003.15,0002.71
2023-11-04 16:39:00,SystemResetWarning,0835.3,4.99,000.00,027.4,026.6,000.0,035.6,028.9,15.8,0000.0,0006.08,0003.18,0002.73
2023-11-04 16:40:00,SystemResetWarning,0835.3,4.99,000.00,027.4,026.6,000.0,035.6,028.9,15.7,0000.0,0006.22,0003.22,0002.77
2023-11-04 16:41:00,SystemResetWarning,0835.3,5.00,000.00,027.4,026.7,000.0,035.6,028.9,15.7,0000.0,0006.42,0003.26,0002.84
2023-11-04 16:42:00,SystemResetWarning,0835.2,5.00,000.00,027.4,026.7,000.0,035.6,028.9,15.6,0000.0,0006.64,0003.29,0002.87
2023-11-04 16:43:00,SystemResetWarning,0835.2,5.00,000.00,027.5,026.7,000.0,035.7,029.0,15.8,0000.0,0006.65,0003.31,0002.88
2023-11-04 16:44:00,SystemResetWarning,0835.2,5.01,000.00,027.5,026.7,000.0,035.7,029.0,15.8,0000.0,0006.69,0003.33,0002.89
2023-11-04 16:45:00,SystemResetWarning,0835.1,5.00,000.00,027.5,026.7,000.0,035.7,029.0,15.8,0000.0,0006.20,0003.32,0002.92
2023-11-04 16:46:00,SystemResetWarning,0835.1,4.99,000.00,027.5,026.7,000.0,035.7,029.0,15.7,0000.0,0005.71,0003.30,0002.94
2023-11-04 16:47:00,SystemResetWarning,0835.1,4.99,000.00,027.5,026.8,000.0,035.7,029.0,15.6,0000.0,0006.47,0003.33,0002.95
2023-11-04 16:48:00,SystemResetWarning,0835.1,5.01,000.00,027.5,026.8,000.0,035.7,029.1,15.4,0000.0,0006.83,0003.33,0002.95
2023-11-04 16:49:00,SystemResetWarning,0835.2,5.01,000.00,027.5,026.8,000.0,035.8,029.1,15.4,0000.0,0006.89,0003.35,0002.95
2023-11-04 16:50:00,SystemResetWarning,0835.2,5.01,000.00,027.6,026.8,000.0,035.8,029.1,15.1,0000.0,0007.06,0003.32,0002.91
2023-11-04 16:51:00,SystemResetWarning,0835.1,5.00,000.00,027.6,026.8,000.0,035.8,029.1,14.9,0000.0,0007.10,0003.28,0002.84
2023-11-04 16:52:00,SystemResetWarning,0835.1,5.00,000.00,027.6,026.9,000.0,035.8,029.1,15.0,0000.0,0006.94,0003.23,0002.75
2023-11-04 16:53:00,SystemResetWarning,0835.1,5.00,000.00,027.6,026.9,000.0,035.8,029.1,15.0,0000.0,0006.66,0003.18,0002.67
2023-11-04 16:54:00,SystemResetWarning,0835.1,5.00,000.00,027.6,026.9,000.0,035.8,029.1,15.1,0000.0,0006.45,0003.14,0002.60
2023-11-04 16:55:00,SystemResetWarning,0835.1,4.99,000.00,027.6,026.9,000.0,035.9,029.1,15.2,0000.0,0006.27,0003.08,0002.55
2023-11-04 16:56:00,SystemResetWarning,0835.1,5.00,000.00,027.7,026.9,000.0,035.9,029.2,15.2,0000.0,0006.11,0003.03,0002.49
2023-11-04 16:57:00,SystemResetWarning,0835.1,5.00,000.00,027.7,026.9,000.0,035.9,029.2,15.2,0000.0,0006.17,0003.01,0002.44
2023-11-04 16:58:00,SystemResetWarning,0835.2,5.01,000.00,027.7,027.0,000.0,035.9,029.2,15.2,0000.0,0005.97,0002.94,0002.39
2023-11-04 16:59:00,SystemResetWarning,0835.1,5.01,000.00,027.7,027.0,000.0,035.9,029.2,15.3,0000.0,0005.52,0002.92,0002.35
